Regional Weather Roundup
Issued by NWS Kansas City/Pleasant Hill, MO

Home | Current Version | Previous Version | Graphics & Text | Print | Product List | Glossary Off
Versions: 1 2 3 4 5 6 7 8 9 10 11 12 13 14 15 16 17 18 19 20 21 22 23 24 25 26 27 28 29 30 31 32 33 34 35 36 37 38 39 40 41 42 43 44 45 46 47 48 49 50

000
ASUS43 KEAX 310310
RWREAX

WEATHER ROUNDUP FOR EASTERN KANSAS AND NORTHWEST MISSOURI
NATIONAL WEATHER SERVICE KANSAS CITY/PLEASANT HILL MO
1000 PM CDT SAT AUG 30 2014

KSZ040-057-103>105-MOZ028-029-037-043-310400-
...KANSAS CITY METROPOLITAN AREA...

CITY           SKY/WX    TMP DP  RH WIND       PRES   REMARKS
K.C. INTL      CLEAR     75  68  78 SE8       29.91R
K.C. DOWNTOWN  CLEAR     80  67  64 E6        29.89S
LEES SUMMIT    CLEAR     77  67  71 SE5       29.92R
OLATHE - IXD   CLEAR     76  66  71 SE6       29.91S
OLATHE - OJC   CLEAR     76  67  73 SE5       29.91R
LAWRENCE       CLEAR     73  67  81 CALM      29.90R

$$

MOZ001>008-011>017-020>025-030>033-038>040-044>046-053-054-310400-
...NORTHERN AND CENTRAL MISSOURI...

CITY           SKY/WX    TMP DP  RH WIND       PRES   REMARKS
ST. JOSEPH     CLEAR     69  67  93 CALM      29.89S
MOSBY          CLEAR     72  70  94 CALM      29.90S
WHITEMAN AFB   CLEAR     72  68  88 CALM      29.91S
CLINTON        CLEAR     75  70  83 CALM      29.92R
SEDALIA        CLEAR     77  69  76 SW5       29.93R
WARSAW         NOT AVBL
MARSHALL       CLEAR     77  72  83 CALM      29.92S HAZE
CHILLICOTHE      N/A     71  69  93 CALM      29.92R
MOBERLY        PTCLDY    73  68  83 CALM      29.93R
KIRKSVILLE     CLEAR     69  67  93 CALM      29.93R

$$

MOZ041-047>049-056>058-063>065-088>090-097-310400-
...EASTERN AND SOUTHERN MISSOURI...

CITY           SKY/WX    TMP DP  RH WIND       PRES   REMARKS
ST. LOUIS INTL MOCLDY    78  70  76 S8        29.94R
SPIRIT OF STL  PTCLDY    76  71  85 S5        29.91S
COLUMBIA       MOCLDY    73  69  87 SE8       29.93R
JEFFERSON CITY MOCLDY    73  68  84 SE5       29.92R
HANNIBAL       MOCLDY    75  72  88 S5        29.92S
ROLLA          CLOUDY    70  67  90 S8        29.94R
LEBANON        MOCLDY    73  68  83 S7        29.96S
OSAGE BEACH    MOCLDY    73  66  78 S3        29.93S
SPRINGFIELD    PTCLDY    70  66  87 S9        29.95R
BRANSON        PTCLDY    73  68  83 S5        29.98S
NEVADA         CLEAR     75  68  78 S7        29.93R
JOPLIN         MOCLDY    79  66  64 S8        29.94R
WEST PLAINS    PTCLDY    74  69  85 S5        30.00R

$$

IAZ060-094-KSZ022-034>040-054-083-096-NEZ052-066-093-310400-
...KANSAS...SOUTHEAST NEBRASKA AND IOWA...

CITY           SKY/WX    TMP DP  RH WIND       PRES   REMARKS
TOPEKA         PTCLDY    75  68  78 E6        29.88S
MANHATTAN      CLEAR     77  63  61 CALM      29.87R
EMPORIA        CLEAR     74  60  61 SE7       29.89S
CHANUTE        CLEAR     74  63  68 CALM      29.90R
WICHITA        CLEAR     76  61  59 S7        29.89R
OMAHA          CLEAR     72  64  76 SE8       29.87S
LINCOLN        CLEAR     76  64  66 SE7       29.86S
FALLS CITY     CLEAR     72  68  87 SE3       29.87F
LAMONI         CLEAR     73  68  84 S5        29.91S
DES MOINES     CLEAR     72  66  81 SE3       29.89R

$$



USA.gov is the U.S. government's official web portal to all federal, state and local government web resources and services.